Location: Asni�res
(49.1337°N, 2.3555°E)
Time: 19:27:36
(UTC+00:00)

Cosmos 1535 Rocket - Pass Details

Date: 01 June 2022
Orbit: 949 x 1003 km, 83.0° (Epoch: 28 June)

Event Time Altitude Azimuth Distance (km) Brightness Sun altitude
Rises 02:23:34 0° 357° (N) 3,666 8.4 -10.9°
Reaches altitude 10° 02:26:35 10° 11° (N) 2,724 8.0 -10.6°
Maximum altitude 02:31:37 25° 65° (ENE) 1,873 6.8 -10.1°
Drops below altitude 10° 02:36:39 10° 119° (ESE) 2,741 7.0 -9.6°
Sets 02:39:41 0° 132° (SE) 3,694 7.5 -9.3°
